#timestamp,LO_Frequency,Hit,StdDev 
1547046015.8,286046998.6,P
1547046035.7,286047001.1,N
1547046055.5,286047000.6,N
1547046075.4,286047000.1,N
1547046095.2,286046999.9,N
1547046115.0,286046999.9,N
1547046146.0,286047002.7,E
1547046155.9,286047001.1,N
1547046175.7,286046995.4,P
1547046195.6,286046995.1,N
1547046215.4,286046995.3,N
1547046235.2,286046995.6,N
1547046255.1,286046995.9,N
1547046275.9,286046996.3,N
1547046295.7,286046993.7,Y
1547046315.8,286046999.4,P
1547046335.6,286046997.4,N
1547046355.5,286046996.8,N
1547046375.3,286046997.3,N
1547046395.1,286046997.0,N
1547046415.9,286046999.2,N
1547046435.7,286046999.2,N
1547046455.6,286046997.7,N
1547046475.4,286046996.6,Y
1547046495.2,286047001.0,P
1547046515.1,286046998.1,N
1547046516.0,286046998.1,N
1547046535.8,286046998.3,N
1547046555.7,286047001.1,N
1547046575.5,286047000.6,N
1547046595.3,286047000.3,N
1547046615.2,286046999.8,N
1547046635.0,286047002.1,N
1547046635.9,286047002.1,N
1547046655.8,286047001.4,N
1547046675.6,286047001.9,N
1547046695.4,286047004.2,N
1547046715.3,286047004.2,N
1547046735.1,286047001.3,N
1547046755.8,286047001.0,N
1547046775.7,286047000.4,N
1547046795.5,286047000.4,N
1547046815.4,286046998.7,N
1547046835.2,286046995.0,N
1547046855.0,286046997.6,N
1547046855.9,286046997.6,N
1547046875.8,286046996.9,N
1547046895.6,286046999.1,N
1547046915.5,286047000.8,N
1547046935.3,286047002.4,N
1547046955.1,286047011.9,Y
1547046975.9,286047000.2,P
1547046995.7,286046999.8,P
1547047015.5,286047000.4,N
1547047035.4,286047002.4,Y
1547047055.2,286046998.1,P
1547047075.1,286047000.1,N
1547047076.0,286047000.1,N
1547047095.8,286047000.3,N
1547047115.7,286047000.9,N
1547047135.5,286047000.0,N
1547047155.3,286047000.4,N
1547047175.2,286047002.6,Y
1547047195.0,286047002.3,P
1547047195.9,286047002.3,N
1547047215.8,286047001.0,N
1547047235.6,286046998.5,N
1547047255.4,286046998.2,N
1547047275.3,286047001.1,N
1547047295.1,286047000.9,N
1547047315.9,286047000.9,N
1547047335.7,286046998.6,N
1547047355.5,286047000.5,N
1547047375.4,286047000.2,N
1547047395.2,286047004.3,Y
1547047415.1,286047001.7,P
1547047416.0,286047001.7,N
1547047435.8,286047001.8,N
1547047455.6,286047003.8,Y
1547047475.5,286047002.4,P
1547047495.3,286047001.0,N
1547047515.1,286046998.5,N
1547047535.9,286046996.5,N
1547047555.7,286046998.4,N
1547047575.6,286046998.6,N
1547047595.4,286047000.5,N
1547047615.2,286047002.7,N
1547047635.1,286046999.9,N
1547047636.0,286046999.9,N
1547047655.8,286046999.9,N
1547047675.7,286047000.1,N
1547047695.5,286046999.8,N
1547047715.3,286047001.0,N
1547047735.2,286047000.4,N
1547047755.0,286046999.7,N
1547047755.9,286046999.7,N
1547047775.8,286047002.7,N
1547047795.6,286047000.3,N
1547047815.4,286047000.2,N
1547047835.3,286047001.9,N
1547047855.1,286047003.7,N
1547047875.9,286047004.4,N
1547047895.7,286047004.0,N
1547047915.5,286047002.8,N
1547047935.4,286047001.8,N
1547047955.2,286047004.2,N
1547047975.1,286047001.3,N
1547047976.0,286047001.3,N
1547047995.8,286047002.1,N
1547048015.6,286047001.4,N
1547048035.5,286047003.8,N
1547048055.3,286047003.2,N
1547048075.2,286047003.1,N
1547048095.9,286047003.2,N
1547048115.7,286047006.0,Y
1547048135.6,286047002.2,P
1547048155.4,286047001.9,P
1547048175.2,286047004.4,P
1547048195.1,286047004.4,Y
1547048196.0,286047004.4,P
1547048215.8,286046999.5,N
1547048235.7,286046997.0,N
1547048255.5,286046996.5,N
1547048275.4,286046996.5,N
1547048295.2,286046999.1,N
1547048315.0,286046999.1,N
1547048315.9,286046999.1,N
1547048335.8,286046999.0,N
1547048355.6,286046999.4,N
1547048375.5,286046999.5,N
1547048395.3,286046999.0,N
1547048415.1,286046999.2,N
1547048435.9,286046999.4,N
1547048455.7,286047000.7,N
1547048475.5,286047000.4,N
1547048495.4,286047000.3,N
1547048515.2,286047000.2,N
1547048535.1,286047002.1,N
1547048536.0,286047002.1,N
1547048555.8,286047002.2,N
1547048575.6,286047002.5,N
1547048595.5,286047002.4,N
1547048615.3,286047000.2,N
1547048635.1,286047000.8,N
1547048655.9,286047000.8,N
1547048675.7,286046999.3,N
1547048695.6,286047001.0,N
1547048715.4,286047000.7,N
1547048735.2,286047000.1,N
1547048755.1,286047000.7,N
1547048756.0,286047000.7,N
1547048775.8,286047001.0,N
1547048795.6,286047000.2,N
1547048815.5,286046999.9,N
1547048835.3,286046998.5,N
1547048855.2,286047002.5,N
1547048875.9,286047004.3,Y
1547048895.7,286047000.0,P
1547048915.6,286047002.7,P
1547048935.4,286047001.9,N
1547048955.2,286047001.8,N
1547048975.1,286046999.7,N
1547048976.0,286046999.7,N
1547048995.8,286046999.7,N
1547049015.7,286047002.0,N
1547049035.5,286047002.1,N
1547049055.3,286047002.1,N
1547049075.2,286047003.1,N
1547049095.0,286047005.3,Y
1547049095.9,286047005.3,P
1547049115.8,286047003.0,N
1547049135.6,286047004.1,N
1547049155.4,286047002.5,N
1547049175.3,286047001.4,N
1547049195.1,286047001.7,N
1547049215.8,286047001.7,N
1547049235.7,286047002.1,N
1547049255.5,286047004.2,Y
1547049275.4,286046998.5,P
1547049295.2,286046999.9,N
1547049315.0,286047001.0,N
1547049315.9,286047001.0,N
1547049335.8,286046999.9,N
1547049355.6,286047000.3,N
1547049375.5,286047001.5,N
1547049395.3,286047002.3,N
1547049415.1,286047002.2,N
1547049435.9,286047002.4,N
1547049455.7,286047002.8,N
1547049475.5,286047000.4,N
1547049495.4,286047001.0,N
1547049515.2,286047000.6,N
1547049535.1,286047000.6,N
1547049536.0,286047000.6,N
1547049555.8,286047000.1,N
1547049575.6,286047000.1,N
1547049595.5,286046999.0,N
